Northolt, United Kingdom

11:27 AM GMT on February 24, 2017 (GMT +0000)
Northolt Air Base

Weather History for EGWU - October, 2013

Change the Weather History Date:

Monday, October 28, 2013

  Actual Average Record
Temperature  
Mean Temperature 53 °F -  
Max Temperature 60 °F 50 °F 66 °F (2014)
Min Temperature 46 °F 39 °F 26 °F (2003)
Degree Days  
Heating Degree Days 12    
Growing Degree Days 3 (Base 50)    
Moisture  
Dew Point 47 °F    
Average Humidity 78    
Maximum Humidity 100    
Minimum Humidity 52    
Precipitation  
Precipitation 0.16 in - - ()
Sea Level Pressure  
Sea Level Pressure 29.31 in    
Wind  
Wind Speed 16 mph ()    
Max Wind Speed 45 mph    
Max Gust Speed 64 mph    
Visibility 6.3 miles    
Events Rain    
Averages and records for this station are not official NWS values.
T = Trace of Precipitation, MM = Missing Value Source: Averaged Metar Reports

Daily Weather History Graph

Daily Weather History Graph

Search for Another Location

Airport or City:

Trip Planner

Search our weather history database for the weather conditions in past years. The results will help you decide how hot, cold, wet, or windy it might be!

Date:

Astronomy

Oct. 28, 2013 Rise Set
Actual Time 6:48 AM GMT 4:41 PM GMT
Civil Twilight 6:13 AM GMT 5:16 PM GMT
Nautical Twilight 5:34 AM GMT 5:55 PM GMT
Astronomical Twilight 4:55 AM GMT 6:34 PM GMT
Moon No Moon Rise 1:53 PM GMT (10/28)
Length of Visible Light 11h 02m
Length of Day
9h 53m
Waning Crescent, 36% of the Moon is Illuminated
Oct 28
Waning Crescent
Nov 3
New
Nov 10
First Quarter
Nov 17
Full
Nov 25
Last Quarter

Hourly Weather History & Observations

Time (GMT) Temp. Windchill Dew Point Humidity Pressure Visibility Wind Dir Wind Speed Gust Speed Precip Events Conditions
12:00 AM 56 °F - 54 °F 90% 29.24 in 6 mi SSW 10.4 mph - -   Scattered Clouds
12:50 AM 55.4 °F - 55.4 °F 100% 29.12 in 3.1 mi SSE 5.8 mph - N/A   Scattered Clouds
1:50 AM 59.0 °F - 57.2 °F 94% 29.06 in 6.2 mi SSW 15.0 mph - N/A   Mostly Cloudy
2:50 AM 60.8 °F - 59.0 °F 94% 29.03 in - SW 19.6 mph 33.4 mph N/A   Mostly Cloudy
3:00 AM 60 °F - 58 °F 92% 29.04 in 3 mi SW 19.6 mph - -   Scattered Clouds
3:50 AM 60.8 °F - 57.2 °F 88% 28.97 in 6.2 mi SSW 21.9 mph 33.4 mph N/A   Mostly Cloudy
4:50 AM 60.8 °F - 57.2 °F 88% 28.94 in 6.2 mi SW 21.9 mph - N/A   Mostly Cloudy
5:50 AM 60.8 °F - 53.6 °F 77% 28.88 in 6.2 mi SW 24.2 mph - N/A   Scattered Clouds
6:00 AM 60 °F - 54 °F 73% 28.89 in 13 mi SW 24.2 mph - -   Partly Cloudy
6:50 AM 55.4 °F - 46.4 °F 72% 28.97 in 6.2 mi West 44.9 mph 64.4 mph N/A   Scattered Clouds
7:50 AM 53.6 °F - 46.4 °F 77% 29.15 in 6.2 mi West 25.3 mph 39.1 mph N/A   Mostly Cloudy
8:50 AM 53.6 °F - 44.6 °F 72% 29.24 in 6.2 mi West 25.3 mph 38.0 mph N/A   Scattered Clouds
9:50 AM 55.4 °F - 44.6 °F 67% 29.27 in 6.2 mi West 21.9 mph - N/A   Mostly Cloudy
10:50 AM 55.4 °F - 44.6 °F 67% 29.33 in 6.2 mi WSW 25.3 mph - N/A   Mostly Cloudy
11:50 AM 55.4 °F - 42.8 °F 63% 29.36 in 6.2 mi WSW 23.0 mph 35.7 mph N/A   Mostly Cloudy
12:00 PM 56 °F - 43 °F 52% 29.36 in 31 mi WSW 23.0 mph - -   Partly Cloudy
12:50 PM 57.2 °F - 42.8 °F 59% 29.36 in 6.2 mi WSW 20.7 mph - N/A   Mostly Cloudy
1:02 PM 53.6 °F - 46.4 °F 77% 29.39 in 4.3 mi West 23.0 mph 34.5 mph N/A Rain Heavy Rain Showers
1:15 PM 48.2 °F - 44.6 °F 87% 29.39 in 5.0 mi WSW 20.7 mph 33.4 mph N/A Rain Light Rain Showers
1:50 PM 51.8 °F - 46.4 °F 82% 29.39 in 6.2 mi WSW 13.8 mph - N/A Rain Light Rain Showers
2:50 PM 53.6 °F - 44.6 °F 72% 29.44 in 6.2 mi West 19.6 mph - N/A   Partly Cloudy
3:00 PM 53 °F - 45 °F 65% 29.45 in 31 mi West 19.6 mph - - Rain Light Rain Showers
3:50 PM 51.8 °F - 44.6 °F 76% 29.44 in 6.2 mi WSW 16.1 mph - N/A   Partly Cloudy
4:50 PM 51.8 °F - 44.6 °F 76% 29.50 in 6.2 mi WSW 12.7 mph - N/A   Partly Cloudy
5:50 PM 50.0 °F - 42.8 °F 76% 29.53 in 6.2 mi West 17.3 mph - N/A Rain Light Rain Showers
6:00 PM 49 °F - 42 °F 69% 29.54 in 12 mi West 17.3 mph - - Rain Light Rain Showers
6:50 PM 46.4 °F 41.9 °F 42.8 °F 87% 29.53 in 6.2 mi SW 9.2 mph - N/A   Partly Cloudy
7:50 PM 48.2 °F - 42.8 °F 82% 29.53 in - WSW 9.2 mph - N/A   Clear
8:50 PM 48.2 °F - 42.8 °F 82% 29.56 in - SW 10.4 mph - N/A   Clear
9:00 PM 48 °F - 42 °F 74% 29.57 in 25 mi SW 10.4 mph - -   Partly Cloudy
9:50 PM 48.2 °F - 41.0 °F 76% 29.56 in 6.2 mi WSW 11.5 mph - N/A   Partly Cloudy
10:50 PM 48.2 °F - 41.0 °F 76% 29.56 in - WSW 11.5 mph - N/A   Clear
11:50 PM 48.2 °F - 41.0 °F 76% 29.59 in 6.2 mi WSW 10.4 mph - N/A   Unknown